[[{"header":{"parameterUnit":"m.s-1","parameterCategory":1,"la1":30.2991,"la2":30.254,"lo1":-89.0895,"lo2":-89.0444,"dy":0.0017,"dx":0.0017,"nx":28,"ny":28,"refTime":"2023-11-03T21:00:00:Z","depth":0,"parameterNumber":2,"parameterNumberName":"U-component_of_WINDS"},"data":[0,0,0,0,0,0,0,0,0,0,0,0,0,0,0,0,0,0,0,0,0,0,0,0,0,0,0,0,0,0,0,0,0,0,0,0,0,0,0,0,0,0,0,0,0,0,0,0,0,0,0,0,0,0,0,0,0,0,0.0185,0.0186,0,0.0252,0.0253,0.0254,0.0292,0.0292,0.0292,0.0292,0.0361,0.0363,0.0364,0,0,0,0,0,0,0,0,0,0,0,0,0,0.0088,0.009,0.0185,0.0186,0.0187,0.0252,0.0253,0.0254,0.0292,0.0292,0.0292,0.0292,0.036,0.0362,0.0365,0,0,0,0,0,0,0,0,0,0,0,0,0,0.014,0.009,0.0185,0.0213,0.0217,0.0252,0.0253,0.0254,0.0292,0.0292,0.0292,0.0292,0.036,0.0362,0.0365,0.0377,0,0,0.0373,0.0374,0,0,0,0,0,0,0,0,0.0137,0.0144,0.0208,0.0212,0.0215,0.0264,0.0244,0.0295,0.0292,0.0263,0.0292,0.0292,0.0329,0.0334,0.0346,0.038,0.0383,0.0373,0.0374,0.0376,0.0376,0,0,0,0,0,0,0,0.0133,0.0141,0.0212,0.0209,0.0213,0.0222,0.023,0.0254,0.0294,0.0266,0.0269,0.0276,0.033,0.0343,0.0348,0.0384,0.0373,0.0375,0.0377,0.0378,0.0429,0.0429,0,0,0,0,0,0,0.0125,0.0138,0.0209,0.0214,0.0176,0.0224,0.0233,0.0248,0.0294,0.0301,0.0276,0.0278,0.0339,0.0345,0.035,0.0366,0.0376,0.0378,0.0379,0.0429,0.0429,0.0429,0,0,0,0,0,0,0.0123,0.0131,0.0207,0.0176,0.0187,0.0225,0.0243,0.0249,0.0262,0.0302,0.0309,0.0282,0.0339,0.0347,0.0369,0.0369,0.0379,0.0381,0.0429,0.0429,0.0429,0.0398,0,0,0,0,0,0,0.012,0.013,0.0136,0.0176,0.0188,0.0225,0.0243,0.025,0.0267,0.0269,0.0309,0.0316,0.034,0.0365,0.0372,0.0373,0.0383,0.043,0.0429,0.0429,0.0399,0.0397,0.0395,0,0,0,0,0,0.0117,0.0125,0.0136,0.0144,0.0196,0.0225,0.0232,0.026,0.0266,0.0272,0.0297,0.0314,0.0368,0.0367,0.0375,0.0377,0.043,0.0429,0.0429,0.04,0.0397,0.0395,0,0,0,0,0,0,0.0084,0.0131,0.0144,0.0165,0.0191,0.0231,0.0239,0.0256,0.028,0.0282,0.0315,0.0324,0.0343,0.0362,0.0361,0.0389,0.0401,0.0402,0.0376,0.0374,0.0371,0.0366,0.0386,0,0,0,0,0,0.0079,0.0099,0.0139,0.0155,0.0167,0.02,0.0214,0.0233,0.0261,0.0272,0.0299,0.0325,0.0347,0.0362,0.0385,0.0402,0.0411,0.0407,0.0404,0.0402,0.0403,0.0412,0.041,0.0428,0.0428,0.0428,0,0,0.007,0.0098,0.0109,0.0149,0.0171,0.019,0.0209,0.023,0.0244,0.0275,0.0298,0.0318,0.0349,0.0369,0.0379,0.0386,0.04,0.0402,0.04,0.0402,0.0411,0.0409,0.0408,0.0427,0.0427,0.0427,0,0,0.0063,0.0087,0.0101,0.0122,0.0155,0.0177,0.018,0.0218,0.0232,0.0256,0.0279,0.0296,0.0335,0.0356,0.0371,0.0369,0.0386,0.0376,0.0363,0.0371,0.037,0.0369,0.0367,0.0366,0.0376,0.0376,0.0376,0,0.0047,0.0078,0.0107,0.0125,0.0141,0.0169,0.0183,0.0203,0.0241,0.0251,0.0258,0.0306,0.0329,0.0353,0.0352,0.0364,0.0368,0.0371,0.0368,0.0367,0.0367,0.0365,0.0364,0.0374,0.0375,0.0375,0.0375,0,0.0056,0.0077,0.0084,0.012,0.0137,0.0153,0.0184,0.0197,0.0214,0.0235,0.0257,0.0285,0.0314,0.0321,0.0338,0.0347,0.035,0.0362,0.0374,0.0363,0.0362,0.0362,0.0372,0.0373,0.0373,0.0374,0,0,0.0032,0.0082,0.0084,0.01,0.0137,0.0153,0.0169,0.0197,0.0207,0.0232,0.0246,0.0277,0.0287,0.0305,0.0324,0.0332,0.0326,0.0343,0.0344,0.0338,0.0335,0.0325,0.0324,0.0337,0.0337,0.0337,0.0332,0,0.003,0.0061,0.0086,0.0108,0.0126,0.0152,0.0166,0.019,0.0209,0.0227,0.0249,0.027,0.0283,0.0294,0.0302,0.0325,0.0326,0.0326,0.035,0.035,0.034,0.0324,0.0314,0.0308,0.0332,0.0332,0.0332,0,0.0032,0.0055,0.0078,0.0111,0.0119,0.0132,0.0158,0.0175,0.0201,0.0215,0.0233,0.0253,0.027,0.028,0.0304,0.0303,0.0314,0.0327,0.0327,0.033,0.034,0.0326,0.0307,0.0306,0.0332,0.0332,0.0332,0,0.001,0.0047,0.0065,0.0078,0.0117,0.0125,0.0141,0.0168,0.0182,0.0205,0.0214,0.0238,0.0251,0.0269,0.0294,0.0299,0.0315,0.0327,0.0325,0.0325,0.0328,0.0327,0.031,0.0336,0.0336,0.0336,0.0336,0,0.0005,0.0018,0.0056,0.0067,0.0081,0.011,0.0123,0.0142,0.0165,0.0179,0.0203,0.0216,0.0249,0.0266,0.0285,0.0301,0.0307,0.0318,0.0323,0.0315,0.0314,0.0323,0.0324,0.0336,0.0336,0.0336,0.0336,0,-0.0016,0.001,0.0031,0.0066,0.0075,0.0084,0.0113,0.0124,0.0144,0.0162,0.0168,0.0199,0.0219,0.0246,0.0275,0.0288,0.0301,0.031,0.0292,0.0295,0.0291,0.0291,0.0279,0.0278,0.0305,0.0305,0.0305,0,-0.0021,-0.0011,0.0024,0.0035,0.0051,0.0069,0.0083,0.011,0.0124,0.0153,0.016,0.0182,0.0201,0.0232,0.0257,0.0279,0.0288,0.0282,0.0291,0.0283,0.0286,0.0285,0.0285,0.0279,0.0279,0.0279,0.0278,0,-0.0033,-0.0022,-0.0002,0.002,0.0036,0.0055,0.0076,0.0083,0.0115,0.0128,0.0149,0.0163,0.0192,0.0213,0.0238,0.0254,0.0271,0.0275,0.0276,0.0268,0.0257,0.0261,0.0285,0.0275,0.0276,0.0276,0.0276,0.0276,-0.0047,-0.0037,-0.0012,0.0008,0.0026,0.0043,0.0055,0.0075,0.0093,0.0118,0.0133,0.0152,0.0177,0.0211,0.0227,0.0242,0.0249,0.025,0.025,0.025,0.0246,0.0255,0.0247,0.0247,0.0247,0.0247,0.0247,0,-0.0059,-0.0042,-0.0024,0.0003,0.0018,0.0032,0.0054,0.0066,0.0082,0.0103,0.0121,0.0143,0.0163,0.0189,0.021,0.0217,0.0225,0.0222,0.0221,0.0224,0.024,0.0237,0.0215,0.0215,0.0215,0.0215,0.0215,0.0215,-0.0063,-0.0047,-0.0033,-0.0009,0.0008,0.0027,0.0038,0.0054,0.0071,0.0095,0.0111,0.0127,0.0149,0.0172,0.019,0.0197,0.0203,0.0197,0.0206,0.0221,0.0223,0.0226,0.0223,0.0199,0.0199,0.0189,0.0189,0.0189]},{"header":{"parameterUnit":"m.s-1","parameterCategory":1,"la1":30.2991,"la2":30.254,"lo1":-89.0895,"lo2":-89.0444,"dy":0.0017,"dx":0.0017,"nx":28,"ny":28,"refTime":"2023-11-03T21:00:00:Z","depth":0,"parameterNumber":3,"parameterNumberName":"V-component_of_WINDS"},"data":[0,0,0,0,0,0,0,0,0,0,0,0,0,0,0,0,0,0,0,0,0,0,0,0,0,0,0,0,0,0,0,0,0,0,0,0,0,0,0,0,0,0,0,0,0,0,0,0,0,0,0,0,0,0,0,0,0,0,0.711,0.7109,0,0.7037,0.7036,0.7036,0.7,0.7,0.7,0.7,0.6923,0.6921,0.6919,0,0,0,0,0,0,0,0,0,0,0,0,0,0.7215,0.7213,0.711,0.7109,0.7108,0.7037,0.7036,0.7035,0.7,0.7,0.7,0.7,0.6924,0.6921,0.6919,0,0,0,0,0,0,0,0,0,0,0,0,0,0.7158,0.7212,0.711,0.7082,0.7079,0.7038,0.7036,0.7035,0.7,0.7,0.7,0.7,0.6924,0.6921,0.6918,0.6899,0,0,0.6909,0.6908,0,0,0,0,0,0,0,0,0.7162,0.7154,0.7087,0.7084,0.708,0.7028,0.7045,0.699,0.7,0.703,0.7,0.7,0.6958,0.6952,0.6938,0.6896,0.6892,0.6909,0.6907,0.6906,0.6905,0,0,0,0,0,0,0,0.7165,0.7157,0.7081,0.7086,0.7082,0.7072,0.7064,0.7034,0.6994,0.7027,0.7024,0.7016,0.6956,0.6941,0.6936,0.6891,0.6909,0.6906,0.6904,0.6903,0.6828,0.6828,0,0,0,0,0,0,0.7174,0.7161,0.7083,0.7079,0.7122,0.707,0.7061,0.7044,0.6995,0.6987,0.7016,0.7015,0.6946,0.694,0.6933,0.6906,0.6906,0.6903,0.6901,0.6828,0.6828,0.6828,0,0,0,0,0,0,0.7177,0.7168,0.7086,0.7119,0.7108,0.7068,0.705,0.7043,0.7028,0.6987,0.6979,0.7009,0.6946,0.6938,0.6908,0.6903,0.6901,0.6899,0.6828,0.6828,0.6828,0.6854,0,0,0,0,0,0,0.718,0.7169,0.7162,0.7119,0.7106,0.7063,0.705,0.7042,0.7023,0.7021,0.6978,0.697,0.6945,0.6913,0.6905,0.6899,0.6896,0.6828,0.6828,0.6828,0.6853,0.6854,0.6856,0,0,0,0,0,0.7184,0.7172,0.7162,0.7153,0.7097,0.7063,0.7056,0.7028,0.7023,0.7015,0.6988,0.6972,0.6905,0.691,0.6901,0.6894,0.6829,0.6828,0.6828,0.6852,0.6854,0.6856,0,0,0,0,0,0,0.7215,0.7166,0.7154,0.7128,0.71,0.7057,0.7046,0.7031,0.7002,0.7001,0.6967,0.6957,0.6931,0.6909,0.6915,0.6872,0.6865,0.6863,0.6887,0.6888,0.6889,0.6895,0.6894,0,0,0,0,0,0.7219,0.7196,0.7154,0.7135,0.7122,0.7087,0.7071,0.7052,0.7021,0.7009,0.6979,0.6949,0.6921,0.6904,0.6876,0.685,0.6839,0.6841,0.6842,0.6843,0.6841,0.6825,0.6825,0.6826,0.6826,0.6827,0,0,0.7226,0.7197,0.7185,0.7141,0.7117,0.7093,0.7077,0.7053,0.7034,0.7005,0.6975,0.6952,0.6916,0.6888,0.6874,0.6869,0.6839,0.6843,0.6844,0.6841,0.6824,0.6824,0.6824,0.6826,0.6826,0.6826,0,0,0.7228,0.7204,0.7185,0.7161,0.7125,0.7102,0.7097,0.7056,0.704,0.701,0.6987,0.6964,0.6917,0.6892,0.6873,0.6864,0.6848,0.6856,0.6862,0.6847,0.6846,0.6846,0.6842,0.6841,0.6855,0.6855,0.6855,0,0.7242,0.7206,0.7178,0.7154,0.7135,0.7108,0.7088,0.7066,0.7022,0.7009,0.7004,0.6944,0.6918,0.6883,0.6881,0.6867,0.686,0.6861,0.6849,0.6848,0.6847,0.6843,0.6842,0.6856,0.6856,0.6856,0.6856,0,0.7224,0.72,0.7189,0.7148,0.7127,0.7106,0.7073,0.7055,0.7038,0.7014,0.6983,0.6951,0.6915,0.6906,0.6888,0.6868,0.6866,0.6856,0.6848,0.6849,0.6844,0.6842,0.6858,0.6857,0.6857,0.6857,0,0,0.7244,0.7187,0.7183,0.7164,0.7121,0.7101,0.7078,0.7044,0.7029,0.6999,0.6978,0.6939,0.6929,0.6907,0.6887,0.6873,0.6867,0.6864,0.6863,0.6865,0.684,0.6848,0.6846,0.6855,0.6855,0.6855,0.6843,0,0.7239,0.7197,0.717,0.7138,0.7114,0.7087,0.7066,0.7037,0.7015,0.699,0.6965,0.6937,0.6926,0.6913,0.6898,0.6871,0.6861,0.6871,0.6834,0.6833,0.6843,0.6844,0.6852,0.6843,0.6841,0.6841,0.6841,0,0.7228,0.7199,0.7165,0.7124,0.7113,0.7095,0.7061,0.7039,0.7005,0.6989,0.6965,0.6944,0.6917,0.6912,0.6873,0.6881,0.6864,0.6848,0.6847,0.6841,0.6837,0.6838,0.6839,0.6838,0.6838,0.6838,0.6838,0,0.7244,0.7197,0.717,0.7154,0.7107,0.7094,0.7074,0.704,0.7021,0.6991,0.6978,0.6945,0.6927,0.6901,0.6871,0.687,0.6835,0.6828,0.682,0.6821,0.6814,0.6814,0.6811,0.6804,0.6804,0.6804,0.6804,0,0.7241,0.7221,0.7177,0.716,0.7136,0.7105,0.7082,0.7059,0.7029,0.7006,0.6981,0.696,0.6923,0.6897,0.6874,0.6844,0.6837,0.6822,0.6816,0.6824,0.6826,0.6812,0.6812,0.6804,0.6804,0.6804,0.6804,0,0.7255,0.7225,0.7194,0.7151,0.7139,0.7124,0.7086,0.7069,0.7044,0.7016,0.7008,0.697,0.6938,0.6906,0.6863,0.6847,0.6818,0.681,0.683,0.6826,0.682,0.6821,0.6807,0.6804,0.68,0.6801,0.6801,0,0.7254,0.7238,0.7194,0.7177,0.7157,0.7131,0.7111,0.7079,0.706,0.7019,0.7006,0.6973,0.6944,0.6895,0.6863,0.6829,0.682,0.6817,0.6815,0.6823,0.6818,0.682,0.6817,0.6818,0.6819,0.6819,0.6819,0,0.7257,0.7242,0.7215,0.7183,0.716,0.7133,0.7105,0.7092,0.7055,0.7034,0.7001,0.6979,0.6935,0.6902,0.6865,0.6842,0.6824,0.682,0.6816,0.6824,0.6836,0.6828,0.6832,0.682,0.682,0.682,0.682,0.682,0.7263,0.7246,0.7212,0.7183,0.7158,0.7132,0.7113,0.7087,0.7059,0.7021,0.7004,0.6971,0.6937,0.6885,0.6863,0.6836,0.6831,0.6826,0.6824,0.6823,0.6825,0.6841,0.6829,0.6829,0.6829,0.6829,0.6829,0,0.7262,0.7239,0.7212,0.7174,0.715,0.7135,0.7103,0.7084,0.7056,0.7025,0.6998,0.696,0.6927,0.6892,0.6857,0.6842,0.6833,0.6834,0.6835,0.6829,0.6832,0.6838,0.6842,0.6842,0.6842,0.6842,0.6842,0.6842,0.726,0.7231,0.7213,0.7172,0.7148,0.7116,0.7099,0.7074,0.705,0.7009,0.6982,0.6959,0.6927,0.6889,0.6858,0.6848,0.6836,0.684,0.6828,0.683,0.6829,0.6828,0.6834,0.6838,0.6838,0.6828,0.6827,0.6827]}]]